Location: Piotrkow Trybunalski
(51.4000°N, 19.6830°E)
Time: 12:45:47
(UTC+02:00)

A-11 Canister half - Pass Details

Date: 31 January 2023
Orbit: 1526 x 1682 km, 47.3° (Epoch: 26 March)

Event Time Altitude Azimuth Distance (km) Brightness Sun altitude
Rises 13:10:42 0° 287° (WNW) 4,741 11.6 19.2°
Reaches altitude 10° 13:14:20 10° 276° (W) 3,777 11.3 19.1°
Maximum altitude 13:21:47 26° 224° (SW) 2,742 11.9 18.6°
Drops below altitude 10° 13:29:24 10° 173° (S) 3,863 12.3 18.2°
Sets 13:33:13 0° 161° (SSE) 4,869 12.4 17.9°
